HK6LRQ-21 Weather Reports


time (UTC)temp
C
wind
direction
speed
KPH
gust
KPH
rain 1hr
cm
rain 24hr
cm
rain mn
cm
humidity
%
barometer
mb
20260507052208 10 92 11.3 8.0 0.00 0.00 0.00 80 1017.0
20260507050207 11 92 11.3 8.0 0.00 0.00 0.00 80 1017.0
20260507044206 12 92 11.3 8.0 0.00 0.00 0.00 80 1018.0
20260507042205 11 93 11.3 8.0 0.00 0.00 0.00 80 1017.0
20260507040204 12 93 11.3 8.0 0.00 0.00 0.00 80 1017.0
20260507034203 11 95 11.3 8.0 0.00 0.00 0.00 80 1018.0
20260507032202 12 95 11.3 8.0 0.00 0.00 0.00 80 1017.0
20260507030201 11 97 11.3 8.0 0.00 0.00 0.00 80 1017.0
20260507024200 11 97 11.3 8.0 0.00 0.00 0.00 80 1018.0
20260507022159 12 97 11.3 8.0 0.00 0.00 0.00 80 1016.0
20260507020158 11 98 8.0 8.0 0.00 0.00 0.00 80 1016.0
20260507014157 12 98 8.0 8.0 0.00 0.00 0.00 80 1017.0
20260507012156 13 98 9.7 8.0 0.00 0.00 0.00 80 1015.0
20260507010155 12 98 8.0 8.0 0.00 0.00 0.00 80 1015.0
20260507004153 13 98 9.7 8.0 0.00 0.00 0.00 80 1016.0
20260507002152 13 105 4.8 6.4 0.00 0.00 0.00 80 1014.0
20260507000151 14 105 4.8 6.4 0.00 0.00 0.00 80 1014.0
20260506234150 15 105 4.8 6.4 0.00 0.00 0.00 80 1014.0
20260506232149 16 105 4.8 6.4 0.00 0.00 0.00 80 1012.0
20260506230148 17 105 4.8 6.4 0.00 0.00 0.00 80 1012.0
20260506224147 16 187 1.6 4.8 0.00 0.00 0.00 80 1013.0
20260506222146 16 187 1.6 4.8 0.00 0.00 0.00 80 1011.0
20260506220145 17 187 1.6 4.8 0.00 0.00 0.00 80 1011.0
20260506214144 17 187 1.6 4.8 0.00 0.00 0.00 80 1012.0
20260506212143 18 187 1.6 4.8 0.00 0.00 0.00 80 1010.0
20260506210142 18 187 1.6 4.8 0.00 0.00 0.00 80 1010.0
20260506204141 19 187 1.6 4.8 0.03 0.00 0.00 80 1011.0
20260506202140 18 236 1.6 6.4 0.00 0.00 0.00 82 1011.0
20260506200139 18 236 1.6 6.4 0.00 0.00 0.00 83 1011.0
20260506194138 19 236 1.6 6.4 0.03 0.00 0.00 83 1012.0
20260506185921 19 253 1.6 6.4 0.00 0.00 0.00 83 1012.0
20260506183920 19 253 1.6 6.4 0.00 0.00 0.00 83 1012.0
20260506181919 19 237 3.2 8.0 0.00 0.00 0.00 83 1012.0
20260506175918 19 237 3.2 8.0 0.00 0.00 0.00 83 1013.0
20260506173917 19 234 3.2 6.4 0.00 0.00 0.00 83 1013.0
20260506171916 19 255 4.8 6.4 0.00 0.00 0.00 83 1014.0
20260506165915 19 255 4.8 6.4 0.00 0.00 0.00 83 1014.0
20260506163914 19 255 4.8 6.4 0.00 0.00 0.00 83 1014.0
20260506161913 19 251 4.8 8.0 0.00 0.00 0.00 83 1015.0
20260506155912 18 251 4.8 8.0 0.00 0.00 0.00 88 1015.0
20260506153911 18 251 4.8 8.0 0.00 0.00 0.00 81 1016.0
20260506151910 17 255 4.8 8.0 0.00 0.00 0.00 94 1016.0
20260506145909 17 255 4.8 8.0 0.00 0.00 0.00 94 1016.0
20260506143908 17 248 1.6 6.4 0.00 0.00 0.00 94 1016.0
20260506141908 17 248 3.2 6.4 0.00 0.00 0.00 94 1017.0
20260506135906 16 248 3.2 6.4 0.00 0.00 0.00 82 1017.0
20260506133906 14 248 3.2 6.4 0.00 0.00 0.00 83 1017.0
20260506131905 12 225 1.6 4.8 0.00 0.00 0.00 87 1017.0
20260506125904 13 225 1.6 4.8 0.00 0.00 0.00 85 1017.0
20260506123903 12 225 1.6 4.8 0.00 0.00 0.00 91 1017.0
20260506121902 12 100 4.8 4.8 0.00 0.00 0.00 91 1017.0
20260506115901 12 99 8.0 8.0 0.00 0.00 0.00 91 1017.0
20260506113900 12 99 8.0 8.0 0.00 0.00 0.00 91 1017.0
20260506111859 12 99 9.7 8.0 0.00 0.00 0.00 91 1017.0
20260506105858 12 99 8.0 8.0 0.00 0.00 0.00 91 1017.0
20260506103857 12 99 9.7 8.0 0.00 0.00 0.00 91 1017.0
20260506101856 12 97 8.0 8.0 0.00 0.00 0.00 91 1016.0
20260506095855 12 97 9.7 8.0 0.00 0.00 0.00 91 1017.0
20260506093854 12 94 8.0 8.0 0.00 0.00 0.00 91 1017.0
20260506091853 12 94 9.7 8.0 0.00 0.00 0.00 91 1016.0
20260506085852 12 95 8.0 8.0 0.00 0.00 0.00 91 1016.0
20260506083851 12 95 8.0 8.0 0.00 0.00 0.00 91 1016.0
20260506081850 13 95 9.7 8.0 0.00 0.00 0.00 91 1016.0
20260506071847 13 94 9.7 8.0 0.00 0.00 0.00 90 1016.0
20260506061844 13 94 8.0 8.0 0.00 0.00 0.00 88 1016.0